EA1L-13 Weather Reports


time (UTC)temp
C
wind
direction
speed
KPH
gust
KPH
rain 1hr
cm
rain 24hr
cm
rain mn
cm
humidity
%
barometer
mb
20260506220004 11 302 0.0 0.0 0.00 0.10 0.00 96 1012.0
20260506214504 11 302 0.0 0.0 0.00 0.10 0.10 95 1012.0
20260506213005 11 302 0.0 0.0 0.00 0.10 0.10 93 1012.0
20260506211504 11 302 0.0 0.0 0.00 0.10 0.10 92 1011.9
20260506210004 11 302 0.0 0.0 0.00 0.10 0.10 91 1012.0
20260506204504 11 61 0.0 0.0 0.00 0.10 0.10 90 1012.0
20260506203004 11 61 0.0 0.0 0.00 0.10 0.10 89 1012.0
20260506201504 11 61 0.0 8.0 0.00 0.10 0.10 88 1011.9
20260506200005 11 75 1.6 8.0 0.00 0.10 0.10 88 1011.8
20260506194504 11 79 3.2 8.0 0.00 0.10 0.10 88 1011.7
20260506193004 11 74 1.6 11.3 0.00 0.10 0.10 86 1011.7
20260506191504 11 87 3.2 16.1 0.00 0.10 0.10 83 1011.5
20260506190005 11 30 4.8 11.3 0.00 0.10 0.10 81 1011.5
20260506184504 12 32 4.8 12.9 0.00 0.10 0.10 81 1011.4
20260506183005 12 351 4.8 16.1 0.00 0.10 0.10 80 1011.3
20260506181504 12 37 9.7 19.3 0.00 0.10 0.10 77 1011.4
20260506180005 12 42 9.7 16.1 0.00 0.10 0.10 74 1011.4
20260506174504 12 30 6.4 19.3 0.00 0.10 0.10 73 1011.4
20260506173005 12 2 9.7 19.3 0.00 0.10 0.10 72 1011.3
20260506171504 12 33 11.3 19.3 0.00 0.10 0.10 70 1011.3
20260506170004 12 52 8.0 19.3 0.00 0.10 0.10 70 1011.3
20260506164504 12 66 8.0 20.9 0.00 0.10 0.10 69 1011.2
20260506163004 12 79 9.7 19.3 0.00 0.13 0.10 70 1011.3
20260506161504 12 87 4.8 19.3 0.00 0.13 0.10 70 1011.1
20260506160004 12 79 8.0 19.3 0.00 0.13 0.10 71 1011.1
20260506154504 13 358 8.0 20.9 0.00 0.13 0.10 71 1011.1
20260506153005 13 55 9.7 19.3 0.00 0.13 0.10 72 1011.3
20260506151504 13 53 9.7 19.3 0.00 0.15 0.10 75 1011.4
20260506150004 13 55 8.0 16.1 0.00 0.15 0.10 81 1011.5
20260506144504 13 35 3.2 12.9 0.03 0.15 0.10 84 1011.6
20260506143005 13 355 4.8 12.9 0.08 0.30 0.10 86 1011.7
20260506141504 12 343 3.2 8.0 0.08 0.30 0.10 85 1011.9
20260506140005 12 39 3.2 14.5 0.08 0.30 0.10 77 1012.1
20260506134504 12 301 3.2 9.7 0.05 0.41 0.08 76 1012.3
20260506133005 13 242 4.8 9.7 0.00 0.36 0.03 72 1012.4
20260506131504 13 259 6.4 11.3 0.00 0.38 0.03 69 1012.5
20260506130005 13 0 3.2 8.0 0.00 0.38 0.03 67 1012.4
20260506124504 13 21 3.2 9.7 0.00 0.38 0.03 69 1012.6
20260506123005 13 351 4.8 14.5 0.00 0.38 0.03 69 1012.6
20260506121504 13 354 8.0 19.3 0.00 0.38 0.03 65 1012.5
20260506120005 13 34 8.0 12.9 0.00 0.38 0.03 60 1012.4
20260506114504 15 301 3.2 11.3 0.00 0.38 0.03 60 1012.6
20260506113005 14 182 3.2 8.0 0.00 0.38 0.03 62 1012.7
20260506111504 13 61 3.2 9.7 0.00 0.38 0.03 65 1012.8
20260506110004 13 315 4.8 11.3 0.00 0.38 0.03 71 1012.8
20260506104504 13 320 3.2 12.9 0.00 0.38 0.03 79 1012.9
20260506103004 13 22 4.8 12.9 0.00 0.41 0.03 99 1012.9
20260506101504 13 14 8.0 12.9 0.00 0.41 0.03 100 1012.9
20260506100005 13 291 1.6 4.8 0.00 0.41 0.03 100 1013.0
20260506094504 13 294 0.0 3.2 0.00 0.41 0.03 100 1013.0
20260506093004 13 224 0.0 0.0 0.00 0.41 0.03 100 1013.0
20260506091504 13 223 0.0 0.0 0.00 0.41 0.03 100 1013.1
20260506090004 13 223 0.0 3.2 0.00 0.41 0.03 100 1012.9
20260506084504 13 223 0.0 0.0 0.00 0.41 0.03 100 1013.1
20260506083005 12 223 0.0 0.0 0.00 0.41 0.03 100 1013.1
20260506081504 12 223 0.0 0.0 0.00 0.41 0.03 100 1013.2
20260506073005 11 223 0.0 1.6 0.00 0.43 0.03 100 1013.0
20260506071504 11 225 0.0 0.0 0.00 0.43 0.03 100 1013.0
20260506061504 10 246 1.6 3.2 0.03 0.43 0.03 100 1012.8
20260506044504 10 246 0.0 0.0 0.00 0.41 0.00 100 1012.5
20260506043005 10 246 0.0 1.6 0.00 0.41 0.00 100 1012.6
20260506041504 9 246 0.0 4.8 0.00 0.41 0.00 100 1012.6
20260506040004 10 246 0.0 0.0 0.00 0.41 0.00 100 1012.7
20260506034505 10 246 0.0 0.0 0.00 0.41 0.00 100 1012.7
20260506033005 10 246 0.0 0.0 0.00 0.41 0.00 100 1012.8
20260506031504 10 246 0.0 0.0 0.00 0.41 0.00 100 1012.8
20260506030004 9 246 0.0 0.0 0.00 0.41 0.00 100 1012.8
20260506024504 9 246 0.0 0.0 0.00 0.41 0.00 100 1012.8
20260506023005 9 246 0.0 0.0 0.00 0.41 0.00 100 1012.8
20260506021504 9 246 0.0 3.2 0.00 0.41 0.00 100 1012.9
20260506020004 9 246 0.0 3.2 0.00 0.41 0.00 100 1012.8
20260506014504 9 246 0.0 0.0 0.00 0.41 0.00 100 1013.1
20260506013005 9 246 0.0 0.0 0.00 0.41 0.00 100 1013.1
20260506011504 9 246 0.0 0.0 0.00 0.41 0.00 100 1013.3
20260506010004 10 246 0.0 0.0 0.00 0.41 0.00 100 1013.4
20260506004504 10 246 0.0 0.0 0.00 0.41 0.00 100 1013.6
20260506003005 10 246 0.0 0.0 0.00 0.41 0.00 100 1013.6
20260506001504 10 246 0.0 0.0 0.00 0.41 0.00 100 1013.6
20260506000004 10 246 0.0 4.8 0.00 0.41 0.00 100 1013.7
20260505234504 10 246 0.0 1.6 0.00 0.41 0.00 100 1013.7
20260505233005 10 248 1.6 4.8 0.00 0.41 0.00 100 1013.8
20260505231504 10 195 1.6 4.8 0.00 0.41 0.00 100 1013.8
20260505230004 10 195 0.0 0.0 0.00 0.41 0.00 100 1014.0
20260505224504 9 195 0.0 4.8 0.00 0.41 0.00 100 1014.0
20260505223004 9 195 3.2 4.8 0.00 0.41 0.00 100 1014.0
20260505221504 9 195 1.6 4.8 0.00 0.41 0.00 100 1013.9